Flag for U.S.A. Weather past 2 weeks in Ontario, California, U.S.A.

Now
81 °F

Sunny.


Feels Like: 79 °F
Forecast: 53 / 83 °F
Wind: 8 mph from Northwest

Location: Ontario International Airport

Current Time: Apr 18, 2015 at 1:52:13 PM

Latest Report: Apr 18, 2015 at 12:53 PM


Visibility: 10 mi

Pressure: 29.93 "Hg

Humidity: 14%

Dew point: 28 °F

Location of OntarioLocation

Historic Weather in Ontario — Graph

°F

Ontario temperature yesterday

Maximum temperature yesterday: 85 °F (at 2:53 PM)
Minimum temperature yesterday: 55 °F (at 4:53 AM)
Average temperature yesterday: 68 °F

Past Weeks' High & Low Weather Summary

 TemperatureHumidityPressure
High85 °F (Apr 17, 2:53 PM)93% (Apr 7, 7:53 PM)30.09 "Hg (Apr 7, 7:53 PM)
Low47 °F (Apr 7, 5:53 AM)6% (Apr 3, 1:53 PM)29.80 "Hg (Apr 5, 3:53 PM)
Average64 °F45%29.95 "Hg
* Reported Apr 3 11:53 AM — Apr 18 11:53 AM, Ontario, Weather by CustomWeather, © 2015

Note: Actual official high and low records may vary slightly from our data, if they occured in-between our weather recording intervals... More about our weather records

Advertising

Ontario weather history for previous 24 hours

 ConditionsComfort  
Time TempWeatherWind HumidityBarometerVisibility
11:53 AM
Sat, Apr 18
78 °FSunny.9 mph13%29.96 "Hg10 mi
10:53 AM74 °FSunny.5 mph15%29.98 "Hg10 mi
9:53 AM70 °FSunny.No wind19%29.99 "Hg10 mi
8:53 AM65 °FSunny.No wind27%30.00 "Hg10 mi
7:53 AM62 °FSunny.No wind31%30.00 "Hg10 mi
6:53 AM56 °FClear.3 mph42%29.99 "Hg10 mi
5:53 AM56 °FClear.3 mph44%29.98 "Hg10 mi
4:53 AM57 °FClear.No wind44%29.97 "Hg10 mi
3:53 AM58 °FClear.No wind39%29.97 "Hg10 mi
2:53 AM59 °FClear.3 mph39%29.97 "Hg10 mi
1:53 AM61 °FClear.No wind31%29.99 "Hg10 mi
12:53 AM62 °FClear.No wind34%30.00 "Hg10 mi
11:53 PM
Fri, Apr 17
63 °FClear.No wind30%30.01 "Hg10 mi
10:53 PM63 °FClear.3 mph30%30.00 "Hg10 mi
9:53 PM65 °FClear.5 mph26%29.99 "Hg10 mi
8:53 PM68 °FClear.7 mph21%29.98 "Hg10 mi
7:53 PM71 °FSunny.12 mph19%29.95 "Hg10 mi
6:53 PM74 °FSunny.14 mph15%29.94 "Hg10 mi
5:53 PM78 °FSunny.12 mph12%29.93 "Hg10 mi
4:53 PM82 °FSunny.16 mph9%29.91 "Hg10 mi
3:53 PM84 °FSunny.16 mph9%29.91 "Hg10 mi
2:53 PM85 °FSunny.16 mph8%29.93 "Hg10 mi
1:53 PM84 °FSunny.14 mph9%29.95 "Hg10 mi
Weather by CustomWeather, © 2015

See weather overviewHow to use our weather pages